カタログに戻る

ARIANE 2 DEB

運用中HEO
NORAD 33584·DEBRIS·🇫🇷 France

打ち上げ Apr 2, 1989 から Guiana Space Centre

Loading…

次のパス (今後24時間)

TLE

最新Source: Space-Track

元期: Sep 14, 2026, 11:59 UTC

1 33584U 89027E   26257.49940677  .00000859  00000-0  11476-2 0  9990
2 33584   5.9784 334.2296 6044800 135.2221 293.4209  3.85581596170169

AllMySatでARIANE 2 DEBをリアルタイム追跡

Download on the App Store